This is the latest recevied weather packets stored in our database for station/object WA0LM. If no packets are shown the sender has not sent any weather packets the latest 10 day(s).
| Time | Temp. | Humidity | Pressure | Rain* | Wind** | Luminosity | Snow |
|---|---|---|---|---|---|---|---|
| 1777793035 | 7.78° C | 74% | 1003.6 hPa | 0 mm | - | 0 W/m² | - |
| 1777792731 | 7.78° C | 78% | 1003.7 hPa | 0 mm | - | 0 W/m² | - |
| 1777792429 | 7.78° C | 73% | 1003.5 hPa | 0 mm | - | 0 W/m² | - |
| 1777792125 | 7.78° C | 73% | 1003.4 hPa | 0 mm | - | 0 W/m² | - |
| 1777791818 | 7.78° C | 72% | 1003.4 hPa | 0 mm | - | 0 W/m² | - |
| 1777791516 | 7.78° C | 72% | 1003.4 hPa | 0 mm | - | 0 W/m² | - |
| 1777791212 | 7.78° C | 71% | 1003.7 hPa | 0 mm | - | 0 W/m² | - |
| 1777790909 | 8.33° C | 69% | 1003.7 hPa | 0 mm | - | 0 W/m² | - |
| 1777790607 | 8.33° C | 69% | 1003.7 hPa | 0 mm | - | 0 W/m² | - |
| 1777790303 | 8.89° C | 67% | 1003.7 hPa | 0 mm | - | 0 W/m² | - |
| 1777790002 | 8.89° C | 67% | 1003.6 hPa | 0 mm | - | 0 W/m² | - |
| 1777789700 | 8.89° C | 67% | 1003.8 hPa | 0 mm | - | 0 W/m² | - |
| 1777789398 | 8.89° C | 68% | 1003.9 hPa | 0 mm | - | 0 W/m² | - |
| 1777789095 | 8.89° C | 65% | 1003.8 hPa | 0 mm | - | 0 W/m² | - |
| 1777788792 | 10° C | 63% | 1003.6 hPa | 0 mm | - | 0 W/m² | - |
| 1777788488 | 10° C | 62% | 1003.6 hPa | 0 mm | - | 0 W/m² | - |
| 1777788183 | 10° C | 62% | 1003.7 hPa | 0 mm | - | 0 W/m² | - |
| 1777787878 | 10° C | 62% | 1003.7 hPa | 0 mm | - | 0 W/m² | - |
| 1777787574 | 10.56° C | 60% | 1003.8 hPa | 0 mm | - | 0 W/m² | - |
| 1777787270 | 10.56° C | 59% | 1003.9 hPa | 0 mm | - | 0 W/m² | - |
| 1777786966 | 10.56° C | 59% | 1004 hPa | 0 mm | - | 0 W/m² | - |
| 1777786664 | 11.11° C | 59% | 1003.7 hPa | 0 mm | - | 0 W/m² | - |
| 1777786362 | 11.11° C | 57% | 1003.8 hPa | 0 mm | - | 0 W/m² | - |
| 1777786058 | 11.11° C | 57% | 1003.8 hPa | 0 mm | - | 0 W/m² | - |
| 1777785755 | 11.67° C | 56% | 1003.8 hPa | 0 mm | - | 0 W/m² | - |
* Rain latest hour (hover to see other rain measurements)
** Current wind speed in m/s (hover to see current wind gust speed)